Tracking 28790 objects as of 19-Apr-2024
HD Live streaming from Space Station
objects crossing your sky now

SL-12 R/B(2)

Track SL-12 R/B(2) now!


NORAD ID: 11570
Int'l Code: 1977-071F
Perigee: 36,467.5 km
Apogee: 36,572.0 km
Inclination: 7.7 °
Period: 1,473.3 minutes
Semi major axis: 42890 km
RCS: 2.917 m2 (large)
Launch date: July 23, 1977
Source: Commonwealth of Independent States (former USSR) (CIS)
Launch site: TYURATAM MISSILE AND SPACE COMPLEX (TTMTR)

Note: This is a ROCKET BODY
Your satellite tracking list
Your tracking list is empty




NASA's NSSDC Master Catalog

Two Line Element Set (TLE):
1 11570U 77071F   24109.61880609 -.00000050  00000-0  00000-0 0  9996
2 11570   7.6832 291.2512 0012182 134.8206 265.8222  0.97736588111689
Source of the keplerian elements: AFSPC